Olympia, WA

8:21 AM PST on February 20, 2018 (GMT -0800)
Olympia

Weather History for KOLM - April, 2013

Change the Weather History Date:

Tuesday, April 16, 2013

  Actual Average Record
Temperature  
Mean Temperature 45 °F 48 °F  
Max Temperature 58 °F 59 °F 81 °F (1999)
Min Temperature 32 °F 38 °F 27 °F (1976)
Degree Days  
Heating Degree Days 20 17  
Month to date heating degree days 288 283  
Since 1 July heating degree days 4584 4641  
Cooling Degree Days 0 0  
Month to date cooling degree days 0 0  
Year to date cooling degree days 0 0  
Moisture  
Dew Point 36 °F    
Average Humidity 71    
Maximum Humidity 100    
Minimum Humidity 41    
Precipitation  
Precipitation 0.00 in 0.12 in 1.70 in (1992)
Month to date precipitation 4.12 2.09  
Year to date precipitation 15.95 20.49  
Sea Level Pressure  
Sea Level Pressure 30.29 in    
Wind  
Wind Speed 3 mph (ENE)    
Max Wind Speed 15 mph    
Max Gust Speed 18 mph    
Visibility 4 miles    
Events Fog    
T = Trace of Precipitation, MM = Missing Value Source: NWS Daily Summary

Daily Weather History Graph

Daily Weather History Graph

Search for Another Location

Airport or City:

Trip Planner

Search our weather history database for the weather conditions in past years. The results will help you decide how hot, cold, wet, or windy it might be!

Date:

Astronomy

Apr. 16, 2013 Rise Set
Actual Time 6:21 AM PDT 8:02 PM PDT
Civil Twilight 5:49 AM PDT 8:34 PM PDT
Nautical Twilight 5:10 AM PDT 9:13 PM PDT
Astronomical Twilight 4:27 AM PDT 9:56 PM PDT
Moon 10:35 AM PDT (4/16) 1:13 AM PDT (4/16)
Length of Visible Light 14h 44m
Length of Day
13h 40m
Waxing Crescent, 34% of the Moon is Illuminated
Apr 16
Waxing Crescent
Apr 18
First Quarter
Apr 25
Full
May 2
Last Quarter
May 9
New

Hourly Weather History & Observations

Time (PDT) Temp. Windchill Dew Point Humidity Pressure Visibility Wind Dir Wind Speed Gust Speed Precip Events Conditions
12:35 AM 37.9 °F - 37.0 °F 97% 30.20 in 1.5 mi Calm Calm - N/A   Partly Cloudy
12:42 AM 39.0 °F 36.8 °F 37.9 °F 96% 30.20 in 1.2 mi WSW 3.5 mph - N/A   Clear
12:46 AM 39.0 °F - 37.9 °F 96% 30.20 in 2.5 mi Calm Calm - N/A   Clear
12:50 AM 37.4 °F - 37.4 °F 100% 30.20 in 1.2 mi Calm Calm - N/A   Clear
12:54 AM 37.0 °F - 37.0 °F 100% 30.21 in 0.5 mi Calm Calm - N/A Fog Fog
12:58 AM 37.0 °F - 37.0 °F 100% 30.20 in 0.2 mi Calm Calm - N/A Fog Fog
1:08 AM 36.0 °F - 36.0 °F 100% 30.20 in 0.5 mi Calm Calm - N/A Fog Fog
1:34 AM 36.0 °F - 36.0 °F 100% 30.21 in 0.5 mi Calm Calm - N/A Fog Fog
1:54 AM 36.0 °F - 35.1 °F 97% 30.22 in 0.8 mi Calm Calm - N/A   Mist
2:08 AM 36.0 °F 32.1 °F 36.0 °F 100% 30.21 in 1.0 mi SSE 4.6 mph - N/A   Clear
2:16 AM 36.0 °F - 36.0 °F 100% 30.22 in 1.5 mi Calm Calm - N/A   Partly Cloudy
2:19 AM 35.1 °F - 35.1 °F 100% 30.22 in 0.8 mi Calm Calm - N/A   Mist
2:33 AM 33.1 °F - 33.1 °F 100% 30.22 in 0.8 mi Calm Calm - N/A   Clear
2:40 AM 33.1 °F 30.0 °F 33.1 °F 100% 30.22 in 0.5 mi South 3.5 mph - N/A Fog Fog
2:54 AM 34.0 °F 31.0 °F 33.1 °F 96% 30.23 in 0.2 mi SSE 3.5 mph - N/A Fog Fog
3:10 AM 33.1 °F - 33.1 °F 100% 30.23 in 0.5 mi Calm Calm - N/A Fog Fog
3:33 AM 33.1 °F - 32.0 °F 96% 30.23 in 0.2 mi Calm Calm - N/A Fog Fog
3:54 AM 34.0 °F - 34.0 °F 100% 30.24 in 0.2 mi Calm Calm - N/A Fog Fog
4:54 AM 33.8 °F - 33.8 °F 100% 30.25 in 0.2 mi Calm Calm - N/A Fog Fog
5:54 AM 34.0 °F - 34.0 °F 100% 30.27 in 0.2 mi Calm Calm - N/A Fog Fog
6:54 AM 33.1 °F - 33.1 °F 100% 30.29 in 0.2 mi Calm Calm - N/A Fog Fog
7:54 AM 34.0 °F - 34.0 °F 100% 30.31 in 0.2 mi Calm Calm - N/A Fog Fog
8:54 AM 36.0 °F - 36.0 °F 100% 30.33 in 0.2 mi Calm Calm - N/A Fog Fog
9:41 AM 39.0 °F - 39.0 °F 100% 30.33 in 0.5 mi Calm Calm - N/A Fog Fog
9:52 AM 39.2 °F - 39.2 °F 100% 30.33 in 1.5 mi Calm Calm - N/A   Overcast
9:54 AM 41.0 °F - 39.9 °F 96% 30.34 in 1.0 mi Calm Calm - N/A   Overcast
10:16 AM 42.1 °F - 39.9 °F 92% 30.33 in 8.0 mi Calm Calm - N/A   Mostly Cloudy
10:54 AM 46.9 °F - 39.9 °F 77% 30.33 in 10.0 mi Calm Calm - N/A   Mostly Cloudy
11:20 AM 48.9 °F - 41.0 °F 74% 30.33 in 9.0 mi Calm Calm - N/A   Mostly Cloudy
11:54 AM 50.0 °F - 39.9 °F 68% 30.34 in 10.0 mi Variable 4.6 mph - N/A   Mostly Cloudy
12:54 PM 52.0 °F - 39.0 °F 61% 30.34 in 10.0 mi Variable 4.6 mph - N/A   Mostly Cloudy
1:54 PM 55.0 °F - 37.0 °F 51% 30.33 in 10.0 mi Calm Calm - N/A   Partly Cloudy
2:54 PM 55.0 °F - 37.9 °F 53% 30.32 in 10.0 mi NNE 10.4 mph - N/A   Scattered Clouds
3:54 PM 57.0 °F - 36.0 °F 45% 30.32 in 10.0 mi NNW 9.2 mph - N/A   Scattered Clouds
4:54 PM 57.9 °F - 35.1 °F 42% 30.32 in 10.0 mi NE 10.4 mph - N/A   Scattered Clouds
5:54 PM 54.0 °F - 32.0 °F 43% 30.33 in 10.0 mi NE 10.4 mph - N/A   Scattered Clouds
6:54 PM 54.0 °F - 30.0 °F 40% 30.34 in 10.0 mi NNE 9.2 mph - N/A   Clear
7:54 PM 51.1 °F - 30.0 °F 44% 30.35 in 10.0 mi NNE 3.5 mph - N/A   Clear
8:54 PM 42.1 °F - 33.1 °F 70% 30.38 in 10.0 mi Calm Calm - N/A   Clear
9:54 PM 37.0 °F 34.5 °F 33.1 °F 86% 30.40 in 10.0 mi South 3.5 mph - N/A   Clear
10:54 PM 37.9 °F - 34.0 °F 86% 30.41 in 10.0 mi Calm Calm - N/A   Clear
11:54 PM 35.1 °F - 33.1 °F 92% 30.42 in 9.0 mi Calm Calm - N/A   Clear